Weather History for Harlan, IA

Change the Weather History Date:

Monday, November 12, 2012

  Actual Average Record
Temperature  
Mean Temperature 27 °F -  
Max Temperature 35 °F 44 °F 69 °F (1952)
Min Temperature 19 °F 26 °F 0 °F (1968)
Degree Days  
Heating Degree Days 38    
Moisture  
Dew Point 16 °F    
Average Humidity 68    
Maximum Humidity 86    
Minimum Humidity 38    
Precipitation  
Precipitation 0.00 in - - ()
Sea Level Pressure  
Sea Level Pressure 30.28 in    
Wind  
Wind Speed 11 mph (West)    
Max Wind Speed 23 mph    
Max Gust Speed 30 mph    
Visibility 10 miles    
Events      
Averages and records for this station are not official NWS values.
T = Trace of Precipitation, MM = Missing Value Source: NWS Daily Summary

Daily Weather History Graph

Daily Weather History Graph

Search for Another Location

Airport:

Trip Planner

Search our weather history database for the weather conditions in past years. The results will help you decide how hot, cold, wet, or windy it might be!

Date:

Astronomy

Nov. 12, 2012 Rise Set
Actual Time 7:07 AM CST 5:03 PM CST
Civil Twilight 6:37 AM CST 5:33 PM CST
Nautical Twilight 6:04 AM CST 6:06 PM CST
Astronomical Twilight 5:31 AM CST 6:39 PM CST
Moon 5:33 AM CST (11/12) 4:09 PM CST (11/12)
Length of Visible Light 10h 55m
Length of Day
9h 56m
Waning Crescent, 2% of the Moon is Illuminated
Nov 12
Waning Crescent
Nov 13
New
Nov 20
First Quarter
Nov 28
Full
Dec 6
Last Quarter

Hourly Weather History & Observations

Time (CST) Temp. Windchill Dew Point Humidity Pressure Visibility Wind Dir Wind Speed Gust Speed Precip Events Conditions
12:15 AM 21.2 °F 10.9 °F 15.8 °F 80% 30.17 in 10.0 mi West 9.2 mph - N/A   Clear
12:35 AM 21.2 °F 11.7 °F 15.8 °F 80% 30.17 in 10.0 mi West 8.1 mph - N/A   Clear
12:55 AM 21.2 °F 10.9 °F 15.8 °F 80% 30.18 in 10.0 mi West 9.2 mph - N/A   Clear
1:15 AM 21.2 °F 10.1 °F 15.8 °F 80% 30.17 in 10.0 mi West 10.4 mph - N/A   Clear
1:35 AM 21.2 °F 10.1 °F 15.8 °F 80% 30.18 in 10.0 mi West 10.4 mph - N/A   Clear
1:55 AM 21.2 °F 9.5 °F 15.8 °F 80% 30.18 in 10.0 mi West 11.5 mph - N/A   Clear
2:15 AM 21.2 °F 11.7 °F 15.8 °F 80% 30.19 in 10.0 mi West 8.1 mph - N/A   Clear
2:35 AM 19.4 °F 10.4 °F 15.8 °F 86% 30.19 in 10.0 mi West 6.9 mph - N/A   Clear
2:55 AM 21.2 °F 8.9 °F 15.8 °F 80% 30.19 in 10.0 mi West 12.7 mph 18.4 mph N/A   Clear
3:15 AM 21.2 °F 10.9 °F 15.8 °F 80% 30.19 in 10.0 mi West 9.2 mph - N/A   Clear
3:35 AM 21.2 °F 9.5 °F 15.8 °F 80% 30.19 in 10.0 mi West 11.5 mph - N/A   Clear
3:55 AM 19.4 °F 7.2 °F 15.8 °F 86% 30.19 in 10.0 mi West 11.5 mph - N/A   Clear
4:15 AM 21.2 °F 10.1 °F 15.8 °F 80% 30.19 in 10.0 mi WSW 10.4 mph - N/A   Clear
4:35 AM 21.2 °F 10.9 °F 14.0 °F 74% 30.19 in 10.0 mi West 9.2 mph - N/A   Clear
4:55 AM 21.2 °F 10.9 °F 14.0 °F 74% 30.20 in 10.0 mi WSW 9.2 mph - N/A   Clear
5:15 AM 21.2 °F 8.9 °F 14.0 °F 74% 30.20 in 10.0 mi WSW 12.7 mph - N/A   Clear
5:35 AM 21.2 °F 8.9 °F 14.0 °F 74% 30.20 in 10.0 mi WSW 12.7 mph - N/A   Clear
5:55 AM 21.2 °F 10.1 °F 14.0 °F 74% 30.20 in 10.0 mi WSW 10.4 mph - N/A   Clear
6:15 AM 21.2 °F 9.5 °F 14.0 °F 74% 30.21 in 10.0 mi WSW 11.5 mph 16.1 mph N/A   Clear
6:55 AM 21.2 °F 8.9 °F 14.0 °F 74% 30.21 in 10.0 mi West 12.7 mph - N/A   Clear
7:15 AM 21.2 °F 10.1 °F 15.8 °F 80% 30.22 in 10.0 mi WSW 10.4 mph - N/A   Clear
7:35 AM 21.2 °F 8.9 °F 15.8 °F 80% 30.23 in 10.0 mi WSW 12.7 mph - N/A   Clear
7:55 AM 23.0 °F 11.1 °F 15.8 °F 74% 30.23 in 10.0 mi West 12.7 mph - N/A   Clear
8:15 AM 24.8 °F 12.9 °F 15.8 °F 69% 30.24 in 10.0 mi West 13.8 mph - N/A   Clear
8:35 AM 26.6 °F 14.3 °F 17.6 °F 69% 30.25 in 10.0 mi West 16.1 mph 20.7 mph N/A   Clear
8:55 AM 26.6 °F 14.3 °F 17.6 °F 69% 30.25 in 10.0 mi West 16.1 mph 21.9 mph N/A   Clear
9:15 AM 28.4 °F 16.2 °F 15.8 °F 59% 30.25 in 10.0 mi West 17.3 mph 25.3 mph N/A   Clear
9:35 AM 28.4 °F 15.4 °F 17.6 °F 64% 30.25 in 10.0 mi WSW 19.6 mph 27.6 mph N/A   Clear
9:55 AM 28.4 °F 15.4 °F 17.6 °F 64% 30.25 in 10.0 mi West 19.6 mph 25.3 mph N/A   Clear
10:15 AM 30.2 °F 17.1 °F 15.8 °F 55% 30.26 in 10.0 mi West 21.9 mph 26.5 mph N/A   Clear
10:35 AM 30.2 °F 17.8 °F 15.8 °F 55% 30.26 in 10.0 mi West 19.6 mph 27.6 mph N/A   Clear
10:55 AM 30.2 °F 17.1 °F 15.8 °F 55% 30.27 in 10.0 mi WNW 21.9 mph 27.6 mph N/A   Clear
11:15 AM 32.0 °F 19.5 °F 15.8 °F 51% 30.28 in 10.0 mi West 21.9 mph 26.5 mph N/A   Clear
11:35 AM 32.0 °F 19.8 °F 15.8 °F 51% 30.27 in 10.0 mi West 20.7 mph 26.5 mph N/A   Clear
11:55 AM 33.8 °F 22.5 °F 15.8 °F 48% 30.28 in 10.0 mi WNW 19.6 mph 25.3 mph N/A   Clear
12:15 PM 33.8 °F 21.6 °F 15.8 °F 48% 30.28 in 10.0 mi West 23.0 mph 29.9 mph N/A   Clear
12:35 PM 33.8 °F 22.8 °F 15.8 °F 48% 30.27 in 10.0 mi WNW 18.4 mph - N/A   Clear
12:55 PM 35.6 °F 25.2 °F 15.8 °F 44% 30.27 in 10.0 mi West 18.4 mph 25.3 mph N/A   Clear
1:15 PM 35.6 °F 24.5 °F 15.8 °F 44% 30.27 in 10.0 mi West 20.7 mph 28.8 mph N/A   Clear
1:35 PM 35.6 °F 25.2 °F 15.8 °F 44% 30.27 in 10.0 mi West 18.4 mph 27.6 mph N/A   Clear
2:15 PM 35.6 °F 24.8 °F 15.8 °F 44% 30.29 in 10.0 mi West 19.6 mph 24.2 mph N/A   Clear
2:35 PM 35.6 °F 24.5 °F 14.0 °F 41% 30.29 in 10.0 mi WNW 20.7 mph 25.3 mph N/A   Clear
2:55 PM 35.6 °F 25.2 °F 14.0 °F 41% 30.29 in 10.0 mi West 18.4 mph - N/A   Clear
3:15 PM 35.6 °F 26.2 °F 14.0 °F 41% 30.30 in 10.0 mi WNW 15.0 mph - N/A   Clear
3:35 PM 35.6 °F 25.9 °F 14.0 °F 41% 30.31 in 10.0 mi WNW 16.1 mph - N/A   Clear
3:55 PM 35.6 °F 25.2 °F 12.2 °F 38% 30.31 in 10.0 mi West 18.4 mph - N/A   Clear
4:15 PM 35.6 °F 26.2 °F 14.0 °F 41% 30.32 in 10.0 mi WNW 15.0 mph - N/A   Clear
4:35 PM 33.8 °F 24.8 °F 15.8 °F 48% 30.33 in 10.0 mi WNW 12.7 mph 17.3 mph N/A   Clear
4:55 PM 33.8 °F 26.4 °F 15.8 °F 48% 30.33 in 10.0 mi West 9.2 mph - N/A   Clear
5:15 PM 30.2 °F 23.4 °F 17.6 °F 60% 30.34 in 10.0 mi West 6.9 mph - N/A   Clear
5:35 PM 28.4 °F 19.7 °F 17.6 °F 64% 30.34 in 10.0 mi West 9.2 mph - N/A   Clear
5:55 PM 28.4 °F 21.2 °F 17.6 °F 64% 30.35 in 10.0 mi WSW 6.9 mph - N/A   Clear
6:15 PM 28.4 °F 24.6 °F 15.8 °F 59% 30.35 in 10.0 mi SW 3.5 mph - N/A   Clear
6:35 PM 26.6 °F 21.2 °F 17.6 °F 69% 30.36 in 10.0 mi WSW 4.6 mph - N/A   Clear
6:55 PM 21.2 °F 13.6 °F 17.6 °F 86% 30.37 in 10.0 mi WSW 5.8 mph - N/A   Clear
7:15 PM 24.8 °F - 17.6 °F 74% 30.37 in 10.0 mi Calm Calm - N/A   Clear
7:35 PM 23.0 °F 18.4 °F 15.8 °F 74% 30.37 in 10.0 mi WSW 3.5 mph - N/A   Clear
7:55 PM 23.0 °F - 17.6 °F 80% 30.38 in 10.0 mi Calm Calm - N/A   Clear
8:35 PM 23.0 °F - 17.6 °F 80% 30.39 in 10.0 mi Calm Calm - N/A   Clear
8:55 PM 23.0 °F - 17.6 °F 80% 30.38 in 10.0 mi Calm Calm - N/A   Clear
9:15 PM 21.2 °F - 17.6 °F 86% 30.39 in 10.0 mi Calm Calm - N/A   Clear
9:35 PM 21.2 °F - 15.8 °F 80% 30.39 in 10.0 mi Calm Calm - N/A   Clear
9:55 PM 21.2 °F - 15.8 °F 80% 30.40 in 10.0 mi Calm Calm - N/A   Clear
10:15 PM 21.2 °F 16.4 °F 15.8 °F 80% 30.40 in 10.0 mi SSW 3.5 mph - N/A   Clear
10:35 PM 21.2 °F 14.9 °F 17.6 °F 86% 30.40 in 10.0 mi SSW 4.6 mph - N/A   Clear
10:55 PM 21.2 °F 16.4 °F 15.8 °F 80% 30.41 in 10.0 mi SW 3.5 mph - N/A   Clear
11:15 PM 19.4 °F - 15.8 °F 86% 30.41 in 10.0 mi Calm Calm - N/A   Clear
11:35 PM 19.4 °F - 15.8 °F 86% 30.40 in 10.0 mi Calm Calm - N/A   Clear
11:55 PM 19.4 °F - 15.8 °F 86% 30.40 in 10.0 mi Calm Calm - N/A   Clear